Paducah, KY

2:43 AM CDT on June 27, 2017 (GMT -0500)
Barkley Regional

Weather History for KPAH - July, 2012

Change the Weather History Date:

Saturday, July 28, 2012

  Actual Average Record
Temperature  
Mean Temperature 81 °F 79 °F  
Max Temperature 94 °F 89 °F 106 °F (1952)
Min Temperature 67 °F 68 °F 51 °F (2013)
Degree Days  
Heating Degree Days 0 0  
Month to date heating degree days 0 0  
Since 1 June heating degree days 7 4  
Since 1 July heating degree days 0 0  
Cooling Degree Days 16 14  
Month to date cooling degree days 563 392  
Year to date cooling degree days 1302 884  
Since 1 June cooling degree days 919 712  
Growing Degree Days 30 (Base 50)    
Moisture  
Dew Point 62 °F    
Average Humidity 58    
Maximum Humidity 90    
Minimum Humidity 26    
Precipitation  
Precipitation 0.00 in 0.13 in 2.93 in (1972)
Month to date precipitation 1.56 4.06  
Year to date precipitation 13.15 29.34  
Snow  
Snow 0.00 in 0.00 in - ()
Month to date snowfall 0.0 0.0  
Since 1 June snowfall 0.0 0.0  
Since 1 July snowfall 0.0 0.0  
Snow Depth 0.00 in    
Sea Level Pressure  
Sea Level Pressure 30.02 in    
Wind  
Wind Speed 5 mph (North)    
Max Wind Speed 16 mph    
Max Gust Speed 21 mph    
Visibility 10 miles    
Events      
T = Trace of Precipitation, MM = Missing Value Source: NWS Daily Summary

Daily Weather History Graph

Daily Weather History Graph

Search for Another Location

Airport or City:

Trip Planner

Search our weather history database for the weather conditions in past years. The results will help you decide how hot, cold, wet, or windy it might be!

Date:

Astronomy

Jul. 28, 2012 Rise Set
Actual Time 5:57 AM CDT 8:05 PM CDT
Civil Twilight 5:28 AM CDT 8:34 PM CDT
Nautical Twilight 4:52 AM CDT 9:09 PM CDT
Astronomical Twilight 4:14 AM CDT 9:47 PM CDT
Moon 4:08 PM CDT (7/28) 1:17 AM CDT (7/28)
Length of Visible Light 15h 06m
Length of Day
14h 08m
Waxing Gibbous, 76% of the Moon is Illuminated
Jul 28
Waxing Gibbous
Aug 1
Full
Aug 9
Last Quarter
Aug 17
New
Aug 24
First Quarter

Hourly Weather History & Observations

Time (CDT) Temp. Heat Index Dew Point Humidity Pressure Visibility Wind Dir Wind Speed Gust Speed Precip Events Conditions
12:53 AM 73.9 °F - 68.0 °F 82% 29.97 in 10.0 mi Calm Calm - N/A   Clear
1:53 AM 73.4 °F - 68.0 °F 83% 29.99 in 10.0 mi Calm Calm - N/A   Clear
2:53 AM 71.1 °F - 66.9 °F 87% 29.97 in 10.0 mi Calm Calm - N/A   Clear
3:53 AM 69.1 °F - 66.0 °F 90% 29.98 in 10.0 mi Calm Calm - N/A   Clear
4:53 AM 70.0 °F - 66.0 °F 87% 29.99 in 10.0 mi Calm Calm - N/A   Clear
5:53 AM 69.1 °F - 66.9 °F 93% 30.00 in 10.0 mi Calm Calm - N/A   Clear
6:53 AM 72.0 °F - 68.0 °F 87% 30.03 in 10.0 mi Calm Calm - N/A   Clear
7:53 AM 77.0 °F - 66.0 °F 69% 30.04 in 10.0 mi NE 4.6 mph - N/A   Clear
8:53 AM 82.0 °F 83.1 °F 63.0 °F 52% 30.04 in 10.0 mi North 5.8 mph - N/A   Clear
9:53 AM 86.0 °F 85.7 °F 60.1 °F 41% 30.05 in 10.0 mi NNE 4.6 mph - N/A   Clear
10:53 AM 88.0 °F 87.1 °F 59.0 °F 37% 30.06 in 10.0 mi NNW 11.5 mph 16.1 mph N/A   Clear
11:53 AM 90.0 °F 89.1 °F 59.0 °F 35% 30.05 in 10.0 mi North 10.4 mph - N/A   Clear
12:53 PM 90.0 °F 88.6 °F 57.0 °F 33% 30.04 in 10.0 mi North 10.4 mph 18.4 mph N/A   Clear
1:53 PM 91.9 °F 90.8 °F 57.9 °F 32% 30.04 in 10.0 mi NNW 11.5 mph 17.3 mph N/A   Clear
2:53 PM 93.0 °F 91.4 °F 55.9 °F 29% 30.03 in 10.0 mi North 11.5 mph 20.7 mph N/A   Clear
3:53 PM 93.9 °F 91.7 °F 54.0 °F 26% 30.01 in 10.0 mi NE 6.9 mph - N/A   Clear
4:53 PM 93.0 °F 91.7 °F 57.0 °F 30% 30.01 in 10.0 mi NNW 6.9 mph - N/A   Clear
5:53 PM 93.0 °F 92.0 °F 57.9 °F 31% 30.01 in 10.0 mi North 11.5 mph 17.3 mph N/A   Partly Cloudy
6:53 PM 90.0 °F 88.8 °F 57.9 °F 34% 30.01 in 10.0 mi North 12.7 mph - N/A   Clear
7:53 PM 86.0 °F 85.4 °F 59.0 °F 40% 30.02 in 10.0 mi NNE 5.8 mph - N/A   Clear
8:53 PM 82.0 °F 82.4 °F 60.1 °F 47% 30.02 in 10.0 mi ENE 5.8 mph - N/A   Clear
9:53 PM 75.9 °F - 63.0 °F 64% 30.04 in 10.0 mi Calm Calm - N/A   Clear
10:53 PM 72.0 °F - 64.9 °F 78% 30.04 in 10.0 mi Calm Calm - N/A   Clear
11:53 PM 71.1 °F - 64.0 °F 78% 30.03 in 10.0 mi Calm Calm - N/A   Clear